When you browse on this site, cookies collect data to enhance your experience and personalize the content and advertising you see.
Visit our Privacy Policy to learn more. By continuing to use the site, you agree to this use of cookies and data.
EN

Hourly Weather Goenka

Today, 28 September, Monday

Time Temperature Precipitation Wind Pressure Humidity
00:00 +13°C° 0.2 mm 5 mps 744 mmHg 90%
01:00 +13°C° 0.2 mm 5 mps 744 mmHg 92%
02:00 +13°C° 0 mm 5 mps 744 mmHg 96%
03:00 +13°C° 1.4 mm 4 mps 744 mmHg 96%
04:00 +13°C° 1.4 mm 4 mps 744 mmHg 95%
05:00 +12°C° 1.4 mm 4 mps 744 mmHg 94%
06:00 +12°C° 0.6 mm 4 mps 744 mmHg 93%
07:00 +12°C° 0.6 mm 4 mps 745 mmHg 92%
08:00 +11°C° 0.6 mm 4 mps 745 mmHg 92%
09:00 +11°C° 0.3 mm 4 mps 745 mmHg 90%
10:00 +11°C° 0.3 mm 4 mps 746 mmHg 89%
11:00 +11°C° 0.3 mm 4 mps 746 mmHg 88%
12:00 +11°C° 1.1 mm 4 mps 747 mmHg 88%
13:00 +11°C° 1.1 mm 3 mps 747 mmHg 87%
14:00 +11°C° 1.1 mm 3 mps 747 mmHg 87%
15:00 +13°C° 0.2 mm 2 mps 748 mmHg 85%
16:00 +13°C° 0.2 mm 2 mps 748 mmHg 83%
17:00 +14°C° 0.2 mm 1 mps 748 mmHg 81%
18:00 +13°C° 0 mm 1 mps 748 mmHg 82%
19:00 +12°C° 0 mm 2 mps 748 mmHg 83%
20:00 +10°C° 0 mm 2 mps 748 mmHg 84%
21:00 +10°C° 0 mm 2 mps 748 mmHg 85%
22:00 +9°C° 0 mm 2 mps 749 mmHg 85%
23:00 +9°C° 0 mm 2 mps 749 mmHg 86%

Tomorrow, 29 September, Tuesday

Time Temperature Precipitation Wind Pressure Humidity
00:00 +9°C° 0 mm 2 mps 749 mmHg 86%
01:00 +8°C° 0 mm 2 mps 749 mmHg 87%
02:00 +9°C° 0 mm 1 mps 749 mmHg 87%
03:00 +8°C° 0 mm 2 mps 749 mmHg 87%
04:00 +8°C° 0 mm 2 mps 748 mmHg 88%
05:00 +8°C° 0 mm 2 mps 748 mmHg 88%
06:00 +9°C° 0 mm 2 mps 748 mmHg 85%
07:00 +10°C° 0 mm 3 mps 748 mmHg 83%
08:00 +11°C° 0 mm 3 mps 748 mmHg 81%
09:00 +12°C° 0 mm 3 mps 748 mmHg 76%
10:00 +14°C° 0 mm 3 mps 748 mmHg 71%
11:00 +17°C° 0 mm 3 mps 748 mmHg 66%
12:00 +17°C° 0 mm 3 mps 747 mmHg 64%
13:00 +18°C° 0 mm 4 mps 747 mmHg 63%
14:00 +18°C° 0 mm 4 mps 747 mmHg 62%
15:00 +17°C° 0 mm 4 mps 747 mmHg 67%
16:00 +17°C° 0 mm 4 mps 746 mmHg 73%
17:00 +15°C° 0 mm 4 mps 746 mmHg 79%
18:00 +14°C° 0 mm 4 mps 746 mmHg 83%
19:00 +13°C° 0 mm 3 mps 746 mmHg 87%
20:00 +12°C° 0 mm 3 mps 746 mmHg 91%
21:00 +12°C° 0 mm 3 mps 746 mmHg 88%
22:00 +12°C° 0 mm 3 mps 745 mmHg 85%
23:00 +12°C° 0 mm 3 mps 745 mmHg 81%

Day after tomorrow, 30 September, Wednesday

Time Temperature Precipitation Wind Pressure Humidity
00:00 +12°C° 0 mm 3 mps 745 mmHg 78%
01:00 +12°C° 0 mm 4 mps 745 mmHg 74%
02:00 +12°C° 0 mm 4 mps 745 mmHg 71%
03:00 +11°C° 0 mm 4 mps 745 mmHg 72%
04:00 +10°C° 0 mm 4 mps 744 mmHg 74%
05:00 +9°C° 0 mm 3 mps 744 mmHg 75%
06:00 +10°C° 0 mm 4 mps 744 mmHg 74%
07:00 +10°C° 0 mm 4 mps 744 mmHg 72%
08:00 +10°C° 0 mm 4 mps 744 mmHg 70%
09:00 +11°C° 0 mm 4 mps 744 mmHg 70%
10:00 +11°C° 0 mm 4 mps 744 mmHg 71%
11:00 +12°C° 0 mm 4 mps 744 mmHg 72%
12:00 +13°C° 0 mm 4 mps 744 mmHg 68%
13:00 +14°C° 0 mm 5 mps 744 mmHg 64%
14:00 +15°C° 0 mm 5 mps 744 mmHg 60%
15:00 +14°C° 0 mm 5 mps 744 mmHg 62%
16:00 +14°C° 0 mm 4 mps 744 mmHg 65%
17:00 +13°C° 0 mm 4 mps 744 mmHg 68%
18:00 +13°C° 0 mm 4 mps 744 mmHg 68%
19:00 +12°C° 0 mm 4 mps 744 mmHg 69%
20:00 +11°C° 0 mm 4 mps 744 mmHg 70%
21:00 +10°C° 0 mm 4 mps 744 mmHg 68%
22:00 +10°C° 0 mm 4 mps 744 mmHg 67%
23:00 +10°C° 0 mm 4 mps 744 mmHg 65%

1 October, Thursday

Time Temperature Precipitation Wind Pressure Humidity
00:00 +10°C° 0 mm 4 mps 744 mmHg 64%
01:00 +8°C° 0 mm 4 mps 744 mmHg 63%
02:00 +8°C° 0 mm 4 mps 744 mmHg 62%
03:00 +8°C° 0 mm 4 mps 744 mmHg 62%
04:00 +8°C° 0 mm 5 mps 744 mmHg 62%
05:00 +8°C° 0 mm 5 mps 744 mmHg 63%
06:00 +9°C° 0 mm 5 mps 744 mmHg 62%
07:00 +9°C° 0 mm 5 mps 744 mmHg 62%
08:00 +10°C° 0 mm 5 mps 744 mmHg 61%
09:00 +12°C° 0 mm 5 mps 744 mmHg 59%
10:00 +14°C° 0 mm 6 mps 744 mmHg 56%
11:00 +15°C° 0 mm 6 mps 744 mmHg 54%
12:00 +14°C° 0 mm 6 mps 744 mmHg 58%
13:00 +13°C° 0 mm 5 mps 744 mmHg 62%
14:00 +12°C° 0 mm 5 mps 744 mmHg 67%
15:00 +12°C° 0 mm 5 mps 744 mmHg 67%
16:00 +12°C° 0 mm 4 mps 744 mmHg 68%
17:00 +12°C° 0 mm 4 mps 744 mmHg 68%
18:00 +12°C° 0 mm 4 mps 744 mmHg 69%
19:00 +12°C° 0 mm 4 mps 744 mmHg 69%
20:00 +12°C° 0 mm 4 mps 744 mmHg 69%
21:00 +11°C° 0 mm 4 mps 744 mmHg 69%
22:00 +11°C° 0 mm 4 mps 744 mmHg 69%
23:00 +11°C° 0 mm 4 mps 744 mmHg 70%

2 October, Friday

Time Temperature Precipitation Wind Pressure Humidity
00:00 +10°C° 0 mm 4 mps 744 mmHg 74%
01:00 +10°C° 0 mm 4 mps 744 mmHg 79%
02:00 +9°C° 0 mm 3 mps 743 mmHg 84%
03:00 +10°C° 0 mm 4 mps 743 mmHg 81%
04:00 +11°C° 0 mm 4 mps 743 mmHg 79%
05:00 +11°C° 0 mm 4 mps 743 mmHg 76%
06:00 +10°C° 0 mm 5 mps 743 mmHg 74%
07:00 +10°C° 0 mm 5 mps 743 mmHg 72%
08:00 +10°C° 0 mm 5 mps 743 mmHg 70%
09:00 +13°C° 0 mm 5 mps 743 mmHg 68%
10:00 +14°C° 0 mm 6 mps 743 mmHg 65%
11:00 +15°C° 0 mm 6 mps 743 mmHg 62%
12:00 +16°C° 0 mm 6 mps 743 mmHg 62%
13:00 +16°C° 0 mm 6 mps 743 mmHg 61%
14:00 +16°C° 0 mm 6 mps 743 mmHg 61%
15:00 +16°C° 0 mm 6 mps 743 mmHg 63%
16:00 +15°C° 0 mm 5 mps 743 mmHg 66%
17:00 +14°C° 0 mm 5 mps 743 mmHg 68%
18:00 +13°C° 0 mm 5 mps 743 mmHg 70%
19:00 +13°C° 0 mm 4 mps 744 mmHg 73%
20:00 +12°C° 0 mm 4 mps 744 mmHg 75%
21:00 +11°C° 0 mm 4 mps 744 mmHg 75%
22:00 +11°C° 0 mm 4 mps 744 mmHg 75%
23:00 +11°C° 0 mm 3 mps 744 mmHg 75%

3 October, Saturday

Time Temperature Precipitation Wind Pressure Humidity
00:00 +10°C° 0 mm 3 mps 743 mmHg 77%
01:00 +10°C° 0 mm 3 mps 743 mmHg 78%
02:00 +10°C° 0 mm 3 mps 743 mmHg 80%
03:00 +10°C° 0 mm 3 mps 743 mmHg 80%
04:00 +10°C° 0 mm 3 mps 743 mmHg 80%
05:00 +10°C° 0 mm 3 mps 743 mmHg 80%
06:00 +11°C° 0 mm 3 mps 743 mmHg 77%
07:00 +11°C° 0 mm 3 mps 743 mmHg 73%
08:00 +12°C° 0 mm 4 mps 743 mmHg 70%
09:00 +12°C° 0 mm 4 mps 743 mmHg 70%
10:00 +13°C° 0 mm 4 mps 743 mmHg 71%
11:00 +13°C° 0 mm 4 mps 743 mmHg 71%
12:00 +13°C° 0 mm 4 mps 743 mmHg 74%
13:00 +13°C° 0 mm 4 mps 743 mmHg 78%
14:00 +12°C° 0 mm 4 mps 743 mmHg 81%
15:00 +12°C° 0 mm 4 mps 742 mmHg 83%
16:00 +12°C° 0 mm 3 mps 742 mmHg 86%
17:00 +12°C° 0 mm 3 mps 742 mmHg 88%
18:00 +12°C° 0.2 mm 3 mps 742 mmHg 90%
19:00 +12°C° 0.2 mm 3 mps 743 mmHg 91%
20:00 +12°C° 0.2 mm 3 mps 743 mmHg 92%
21:00 +12°C° 0.6 mm 3 mps 743 mmHg 93%
22:00 +12°C° 0.6 mm 3 mps 743 mmHg 94%
23:00 +12°C° 0.6 mm 3 mps 743 mmHg 95%
Show more